CZ-6A DEB, 56267

Orbit data source: Space-Track

CZ-6A DEB, 56267 is space debris in SSO originally from a launch on Fri, 11 Nov 2022 UTC launched from the Taiyaun Space Center, China (TSC). Debris objects in space refer to the collection of defunct objects orbiting the Earth. Examples of debris include non-operational satellites, rocket bodies, and fragments generated from explosions, collisions, or faulty payload assembly.

Loading next visibility...
Identifier
56267, 2022-151ACK
Orbit
SSO
Country
Flag of CNCN / PRC
Related business
Manufacturer
SAST
Mission
Spacecraft
Bus & Motor
Unknown
Mass
Unknown
Launch date (UTC)
2022-11-11 (3 years ago)
Launch vehicle
Unknown
Launch site
Taiyaun Space Center, China (TSC)
Object type
Payload
Rocket body
Debris
Shape & HBR
Unknown shape, 0.1 m
Radar Cross Section
Small (<0.1 m²)

Expand to show TLE details & history
Last TLE update: 22 hours ago

TLE from 22 hours ago
0 CZ-6A DEB
1 56267U 22151ACK 26129.67651469  .00020280  00000-0  17850-2 0  9996
2 56267  98.6277 211.8627 0043712 344.8426  15.1479 14.95795294173397
Epoch: 2026-05-09T16:14Z
TLE epoch observation values (Epoch: 2026-05-09T16:14:10.869Z)
Latitude
-0.00005°
Longitude
100.82689°
Altitude
553.57 km
Speed
7.601 km/s
True Right ascension
14h 07m 27s
True Declination
0° 00' 00"
Sunlit
Object was in full shadow at epoch
Visualization orbit readout
Latitude
Unknown
Longitude
Unknown
Altitude
Unknown
Speed
Unknown
Apparent Right ascension
Unknown
Apparent Declination
Unknown
Sunlit
N/A
Visualization observer readout
Local Sidereal Time
22:11:22
Azimuth
Unknown
Elevation
Unknown
Doppler factor
Unknown
Orbital elements
Apogee altitude
607.361 km
Perigee altitude
546.557 km
Semi-major axis
6,955.096 km
Eccentricity
0.00437
Inclination
98.6277°
RAAN
211.8627°
Arg. of periapsis
344.8426°
True anomaly
15.27949°
Mean anomaly
15.1479°
Eccentric anomaly
15.21362°
Mean motion
3.74187 °/min
Orbital period
96.21 mins
BSTAR
0.001785
Loading maneuver chart data...
Computing Atmospheric mass density...
Loading historical data...
Loading historical data...
Loading historical data...
Loading historical data...
Loading historical data...
Loading historical data...
Loading historical data...

Documentation

Showing up to 5 results
|